アトラス彗星

C/2020 R7 ( ATLAS )

English version
Home page
Updated on April 28, 2023

---------------------------------------------------------------------

・ プロフィール

発見日 2020年9月15日
発見光度 19.0等
発見者 Asteroid Terrestrial-Impact Last Alert System (ATLAS) search program

・ 写真集

・ 軌道要素

Epoch 2023 Feb. 25.0 TT = JDT 2460000.5
T 2022 Sept. 16.25165 TT                                Rudenko
q   2.9560095            (2000.0)            P               Q
z  -0.0000844      Peri.  347.84127     +0.05932524     -0.41763617
 +/-0.0000016      Node   268.28268     -0.82294038     -0.53456231
e   1.0002494      Incl.  114.89470     -0.56502181     +0.73472659
>From 458 observations 2019 Dec. 3-2023 Feb. 27, mean residual 0".6.

・ 星図

・ 光度変化

        m1 = 8.0 + 5 logΔ + 8.0 log r(t + 80)

---------------------------------------------------------------------

軌道要素はM.P.E.C. 2023-D72に掲載されたものです。
星図はステラナビゲータ Ver.10 (アストロアーツ) で作成したものです。
光度グラフはComet for Windowsで作成したものです。

---------------------------------------------------------------------

Copyright(C) Seiichi Yoshida (comet@aerith.net). All rights reserved.